FENGYUN 1C DEB

Satellite information

Favourite Embed

Satellite Type and Status

DEBRISIN ORBIT

Key statistics

Satellite FENGYUN 1C DEB at a glance.

Uptime

9714

Days in orbit

Revolutions

≈ 14.1

Per day

Orbit

SSO

Sun Synchronous Orbit

Inclination

98.7

Latest

Satellite identification and parameters

Extended collection of information and parameters for FENGYUN 1C DEB.

Object identification

Identified? True

Debris? True

Object name: FENGYUN 1C DEB

International designator: 1999-025AQX

Object number (NORAD): 30689

Object ID (CCSDS): 30689

Country: PEOPLES REPUBLIC OF CHINA (PRC)

Current information (Y/N): Y

RCS size: SMALL

Orbital parameters

Period: 102.0 minutes

Inclination: 98.708 deg

SMA: 7231.475 km

Apoapsis: 934.13 km

Periapsis: 772.549 km

RAAN: 332.2026 deg

Eccentricy: 0.0111721

Argument of periapsis: 105.5515 deg

Mean anomaly: 309.8716 deg

Mean motion: 14.11765141 rev/day

Mean motion (dot): 0.00000935 rev/day2

B* drag term: 0.0005052 1/REarth

Two-line elements (TLE)

Creation date: Dec. 12, 2025, 7:26 a.m.

Reference frame: TEME

Reference center: EARTH

Epoch: Dec. 11, 2025, 10:40 p.m. UTC

TLE line 0: 0 FENGYUN 1C DEB

TLE line 1: 1 30689U 99025AQX 25345.94506175 .00000935 00000-0 50520-3 0 9999

TLE line 2: 2 30689 98.7080 332.2026 0111721 105.5515 309.8716 14.11765141968797

Live tracking on map

Real-time ground track for satellite FENGYUN 1C DEB.

In-orbit conjunctions

A list of the most updated potential collisions computed for object FENGYUN 1C DEB.

Target Orbit TCA Probability of collision Miss distance Type
FENGYUN 1C DEB SSO 2024-09-24 17:27:14 0.0001509475 479.0 (m) DEBRIS
COSMOS 2251 DEB LEO 2024-08-02 03:12:05 0.0001136572 506.0 (m) DEBRIS
NOAA 11 SSO 2024-06-20 02:18:58 0.0005833358 32.0 (m) PAYLOAD

Associated space launch

Chinese polar orbiting meteorological satellite

FENGYUN 1C DEB was lifted into orbit during the mission ‘Long March 4B | Feng Yun 1C’, on board a Long March 4B space rocket.

The launch took place on May 10, 1999, 1:33 a.m. from Launch Complex 7.

For more information about the launch, click the button.

Launch to space Long March 4B | Feng Yun 1C
Long March 4B | Feng Yun 1C

Agency: N/A

Status: Launch Successful

Launch date: May 10, 1999, 1:33 a.m. UTC

Rocket: Long March 4B

Launch pad: Launch Complex 7

Location: Taiyuan Satellite Launch Center, People's Republic of China

...

Latest news about this satellite

There are no fresh news available about this satellite. Check back as we update our databases every day.


Newsletter sign-up

Weekly statistics, charts and insights to help you stay on top of the space industry.